Location: Rounton
(54.4000°N, 1.3500°W)
Time: 04:41:08
(UTC+00:00)

A-11 Canister half - Pass Details

Date: 05 December 2021
Orbit: 1524 x 1684 km, 47.3° (Epoch: 17 January)

Event Time Altitude Azimuth Distance (km) Brightness Sun altitude
Exits shadow 01:03:18 12° 88° (E) 3,726 11.1 -55.6°
Drops below altitude 10° 01:04:04 10° 86° (E) 3,918 11.3 -55.5°
Sets 01:07:38 0° 76° (ENE) 4,890 12.0 -55.3°
